Location: Kra?nica
(53.4833°N, 14.6167°E)
Time: 20:10:42
(UTC+00:00)

Cosmos 1745 Rocket - Pass Details

Date: 23 May 2024
Orbit: 953 x 996 km, 83.0° (Epoch: 21 June)

Event Time Altitude Azimuth Distance (km) Brightness Sun altitude
Exits shadow 00:48:38 14° 188° (S) 2,403 5.5 -12.1°
Maximum altitude 00:54:02 90° 110° (ESE) 986 4.0 -11.8°
Drops below altitude 10° 01:00:23 10° 11° (N) 2,756 7.7 -11.3°
Sets 01:02:55 0° 11° (NNE) 3,714 8.6 -11.1°
